Temperature
15 15 15 15 15 15 15 15 15 15 15 15 15 15 15 15 15 15 15 15 15 15 15 15 15 15 15 15 15 15 15 15 15 15 15 15 15 15 15 14 15 15 15
15 15 15 15 15 15 15 15 15 15 15 15 15 15 15 15 15 15 15 15 15 15 15 15 15 15 15 15 15 15 15 15 14 14 15 15 14 14 14 15 15 14 14
15 15 15 15 15 15 15 15 15 15 15 15 15 15 15 15 15 15 15 15 14 14 14 14 14 14 14 14 14 14 14 14 14 14 14 14 14 14 14 14 14 14 14
14 14 15 15 14 14 14 14 14 14 14 15 15 15 15 15 14 14 14 14 14 14 14 14 14 14 14 14 14 14 14 14 14 14 14 14 14 14 14 14 14 14 14
14 14 14 14 14 14 14 14 14 14 14 14 14 14 14 14 14 14 14 14 14 14 14 14 14 14 14 14 14 14 14 13 13 13 14 14 13 13 13 14 14 14 14
14 14 14 14 14 14 14 14 14 14 14 14 14 14 14 14 14 14 14 14 14 14 14 14 14 14 14 14 14 14 13 13 13 13 13 13 13 13 13 13 14 14 14
13 13 13 13 14 14 13 13 14 14 14 14 14 14 14 14 14 14 14 14 13 13 13 13 13 14 14 14 14 13 13 13 13 13 13 13 13 13 13 13 13 13 13
13 13 13 13 13 13 13 13 13 13 13 13 13 13 13 14 14 14 13 13 13 13 13 13 13 13 14 14 13 13 13 13 13 13 13 13 13 13 13 13 13 13 13
13 13 13 13 13 13 13 13 13 13 13 13 13 13 13 13 13 13 13 13 13 13 13 13 13 13 13 13 13 13 13 12 12 12 13 13 12 12 12 13 13 13 13
12 12 12 12 12 12 12 13 13 13 13 13 13 13 13 13 13 13 13 13 13 13 13 13 13 13 13 13 13 13 12 12 12 12 12 12 12 12 12 12 12 12 13
12 12 12 12 12 12 12 12 12 12 12 12 12 12 12 12 12 12 12 12 12 12 12 12 12 12 12 12 12 12 12 12 12 12 12 12 12 12 12 12 12 12 12
12 12 11 11 12 12 12 12 12 12 12 12 12 12 12 12 12 12 12 12 12 12 12 12 12 12 12 12 12 12 12 11 11 12 12 12 12 12 12 12 12 12 12
12 11 11 11 11 11 11 11 11 11 11 11 11 12 12 12 11 11 12 12 11 12 12 11 11 11 12 12 12 11 11 11 11 11 11 11 11 11 11 11 11 11 11
11 11 11 11 11 11 11 11 11 11 11 11 11 11 11 11 11 11 11 11 11 11 11 11 11 11 11 11 11 11 11 11 11 11 11 11 11 11 11 11 11 11 11
11 11 11 11 11 11 11 11 11 11 11 11 11 11 11 11 11 11 11 11 11 11 11 11 11 11 11 10 10 11 11 10 10 10 10 11 11 11 11 11 11 10 10
10 10 10 10 10 10 11 11 10 10 10 10 10 10 10 10 10 10 10 10 10 10 10 10 10 10 10 10 10 10 10 10 10 10 10 10 10 10 10 10 10 10 10
10 10 10 10 10 10 10 10 10 10 10 10 10 10 10 10 10 10 10 10 10 10 9 10 10 9 10 10 10 10 10 9 9 10 10 10 10 10 10 10 10 10 9
10 10 10 10 10 10 10 10 10 9 9 10 10 10 9 9 9 9 9 9 9 9 9 9 9 9 9 9 9 9 9 9 9 9 9 9 9 9 9 9 9 9 9
9 9 9 9 9 9 9 9 9 9 9 9 9 9 9 9 9 9 9 9 8 8 8 8 8 8 8 8 8 9 9 9 9 9 9 9 8 8 9 9 8 8 8
9 9 9 9 9 9 9 8 8 8 8 8 8 9 8 8 8 8 8 8 8 8 8 8 8 8 8 8 8 8 8 8 8 8 8 8 8 8 8 8 8 8 8
8 8 8 8 8 8 8 8 8 8 8 8 8 8 8 8 8 8 8 7 7 7 7 7 7 7 7 7 7 7 7 7 7 7 7 7 7 7 7 7 7 7 7
8 8 8 8 8 8 7 7 7 7 7 7 7 7 7 7 7 7 7 7 7 7 7 7 7 7 7 7 7 6 6 6 7 7 7 7 7 7 7 7 7 7 7
7 7 7 7 7 7 7 7 7 6 6 6 7 7 7 7 7 7 7 7 6 6 7 6 6 6 6 6 6 6 6 6 6 6 6 6 6 6 6 6 6 6 6
7 7 7 7 7 7 7 7 6 6 6 6 6 6 6 6 6 6 6 6 6 6 6 6 6 6 6 6 6 6 5 5 5 5 5 5 5 5 6 6 5 5 5
7 7 7 7 6 6 6 6 6 6 6 6 6 6 6 6 6 6 6 5 6 5 5 5 5 5 5 5 5 5 5 5 5 4 4 5 5 5 5 5 5 5 5
6 6 6 6 6 6 6 6 6 6 6 5 5 5 5 5 5 5 5 5 5 5 5 5 5 5 5 5 5 5 5 4 4 4 4 4 4 4 4 4 4 4 4
Wind_Speed
6 8 9 9 9 9 9 10 10 10 10 10 10 10 11 11 10 11 11 11 11 11 11 12 12 13 13 13 13 13 13 13 14 13 13 13 14 14 14 13 13 12 14
7 10 9 10 9 9 9 9 9 10 10 10 10 10 10 10 10 10 10 10 10 11 11 12 12 12 12 12 12 12 12 12 11 12 12 12 13 14 13 13 13 12 13
8 10 10 10 9 9 9 9 9 9 9 9 9 9 9 9 10 9 9 9 10 11 11 11 11 12 12 12 11 11 11 10 9 10 10 10 12 12 13 12 12 12 12
8 10 9 10 9 9 9 9 9 9 9 9 9 8 9 9 9 9 9 9 9 10 10 11 11 12 12 11 10 9 8 8 7 7 9 9 10 11 12 11 11 11 11
8 10 9 10 9 9 9 8 9 9 9 8 8 8 8 8 8 8 8 9 9 9 9 10 11 11 10 10 9 8 7 6 7 7 9 10 10 10 10 10 10 10 9
7 9 9 10 9 8 8 8 8 8 8 8 8 7 7 7 7 7 8 8 8 8 8 9 10 10 9 8 8 6 5 5 6 8 8 9 9 9 9 9 9 8 8
7 8 9 9 9 9 8 7 7 7 7 8 7 7 7 7 7 7 7 7 8 7 7 8 9 9 8 7 6 5 5 5 6 8 9 8 8 9 9 8 8 7 7
6 8 9 9 8 8 7 7 6 6 6 7 7 7 7 7 6 6 6 7 6 6 7 8 8 8 7 7 5 4 4 5 5 7 8 8 8 7 7 7 7 7 7
8 8 7 7 7 7 6 6 6 6 6 6 6 6 6 6 6 6 6 6 6 6 7 7 7 7 6 6 5 3 4 5 5 6 6 6 7 6 6 6 6 6 6
6 6 6 6 6 6 5 5 5 6 6 6 6 6 5 5 5 5 6 6 6 6 7 7 6 6 5 5 4 3 2 3 5 7 6 6 6 6 6 5 5 5 5
5 5 5 5 5 5 4 5 5 5 6 6 6 6 6 5 5 5 6 7 6 6 6 6 6 5 4 3 2 1 2 3 5 6 5 6 6 5 5 4 4 4 4
3 3 3 4 4 4 3 4 4 4 5 5 5 5 5 5 5 6 6 7 6 6 5 5 5 4 3 2 0 1 2 2 4 5 5 6 5 5 4 4 3 3 3
3 3 3 3 4 4 3 3 3 3 3 3 5 5 5 5 5 6 5 5 5 5 3 4 3 2 2 2 1 1 2 3 4 5 4 4 4 3 3 3 3 2 3
4 3 3 3 3 3 3 2 3 3 3 3 3 4 4 3 3 3 3 3 3 3 3 2 2 2 2 2 1 1 2 3 4 4 4 4 3 2 2 2 2 3 3
4 3 3 3 2 2 3 2 3 2 2 3 2 3 3 3 2 2 2 3 2 3 2 1 2 2 2 1 1 2 2 3 4 4 3 3 3 2 1 1 2 2 3
3 3 3 3 3 2 2 2 2 2 2 2 3 3 3 2 2 2 2 2 2 2 2 2 1 1 1 1 1 2 2 2 3 3 3 2 1 1 1 2 2 3 3
3 3 3 3 3 3 2 2 2 2 3 2 2 3 3 2 2 2 2 2 1 1 1 2 2 2 1 1 0 1 1 2 2 3 2 2 2 0 1 2 2 3 4
3 2 2 2 3 3 2 2 2 2 2 2 2 3 3 2 2 2 1 1 1 1 1 1 1 1 0 0 1 0 1 1 1 2 1 1 1 1 1 2 3 3 4
3 3 2 2 3 3 3 2 2 2 1 1 2 2 2 2 2 2 1 1 1 1 1 0 0 0 0 0 1 1 0 0 0 1 1 1 0 1 1 2 3 4 4
3 3 2 2 2 2 2 2 1 1 1 1 2 2 2 2 2 2 1 1 0 1 0 0 0 0 1 0 1 1 1 1 1 1 2 1 1 1 1 2 2 3 4
3 3 2 2 2 2 2 2 2 2 1 1 1 1 2 2 2 1 1 1 1 1 1 1 0 1 0 0 1 1 2 2 2 2 1 1 1 1 2 2 2 2 3
3 2 2 3 3 2 2 2 2 2 1 1 1 1 1 2 2 2 2 2 1 1 1 1 1 1 0 1 0 0 1 2 2 2 1 1 1 1 1 1 2 2 2
3 3 3 3 3 2 2 2 1 1 1 1 1 1 1 1 2 1 1 1 1 2 2 1 2 2 2 1 0 1 1 2 2 2 2 2 1 1 1 2 2 2 2
2 3 3 3 2 2 3 3 3 2 2 2 2 2 2 2 1 1 1 1 1 1 2 2 2 1 2 1 1 1 0 0 1 2 2 2 2 2 2 2 2 2 2
2 2 2 2 2 2 2 3 3 2 1 1 1 2 2 2 2 2 1 1 1 1 2 2 1 1 1 2 1 1 1 2 1 2 3 3 3 2 2 2 2 1 2
2 2 2 2 2 1 2 2 3 3 2 2 1 2 2 1 2 2 1 1 1 1 1 1 2 2 2 1 1 1 1 1 1 1 2 3 3 3 3 2 1 1 2
Wind_Direction
99 105 113 107 102 100 101 98 94 91 89 88 86 83 80 83 86 84 83 85 86 84 84 84 84 82 81 79 77 75 74 72 74 76 76 78 79 78 76 75 72 70 74
106 107 112 107 103 100 102 100 99 94 92 90 88 84 82 82 84 85 84 84 85 86 85 84 84 84 83 80 77 75 74 75 78 79 78 78 78 77 73 70 72 71 72
101 105 109 105 104 101 102 102 100 97 96 94 91 87 86 86 84 85 85 85 86 85 84 84 85 85 85 82 80 76 73 76 79 82 80 79 79 77 75 73 73 70 70
98 103 107 108 105 102 104 105 105 102 101 99 96 94 92 91 89 89 90 87 87 86 84 85 85 85 84 82 81 76 71 68 67 75 77 76 80 80 76 73 72 70 67
93 97 101 111 111 107 105 107 105 103 102 101 100 97 96 95 93 91 92 89 88 87 86 87 87 84 84 83 80 75 66 54 44 63 71 72 76 82 78 73 70 69 67
96 95 101 111 112 112 107 107 106 105 103 102 101 99 99 96 97 96 95 94 94 91 91 91 89 86 83 83 81 75 59 45 48 61 71 75 78 81 77 74 69 67 66
92 96 98 101 106 104 105 101 104 104 106 106 102 100 97 96 97 94 97 99 99 97 97 97 92 89 84 81 79 70 48 39 59 66 66 70 81 86 82 78 71 65 61
92 97 102 98 98 99 100 102 99 105 106 106 105 101 97 92 92 95 97 99 99 101 101 101 97 92 88 82 79 63 38 40 61 72 72 71 84 88 89 81 71 63 58
95 99 103 103 100 98 96 102 106 108 107 105 104 104 98 96 93 94 99 95 100 104 103 101 99 95 90 84 80 62 43 44 56 69 76 74 83 85 86 81 70 60 54
97 102 104 98 96 94 98 97 104 115 115 112 108 102 99 101 97 99 99 96 99 106 109 107 104 99 94 85 73 48 35 39 58 68 69 78 89 85 80 78 68 60 52
96 97 101 97 89 90 104 109 103 105 112 115 110 108 105 94 89 95 103 103 102 103 107 113 114 108 102 94 82 33 14 41 66 71 68 83 91 86 79 73 64 58 46
115 102 97 102 97 81 85 102 103 104 109 111 108 110 101 90 87 89 100 107 105 104 105 112 120 119 110 115 173 4 6 61 74 74 70 86 91 86 79 69 56 47 38
122 106 96 94 96 92 77 88 91 92 96 92 96 96 91 85 84 83 88 89 92 96 89 101 121 119 111 109 95 59 39 70 84 82 76 83 86 84 76 64 46 28 16
117 107 101 90 83 85 89 84 87 75 69 62 81 94 85 82 83 88 87 85 78 78 79 74 83 82 87 102 116 94 73 71 83 91 91 90 83 72 56 36 18 3 354
125 123 120 116 106 92 91 92 94 89 89 82 74 85 84 83 99 81 76 77 67 75 89 75 63 64 68 84 85 85 79 84 88 91 99 97 85 54 14 353 339 332 336
143 141 134 129 126 113 113 112 102 110 110 112 100 93 82 84 89 95 92 79 64 60 79 80 69 73 64 63 78 90 97 96 99 108 112 107 105 66 338 321 320 325 329
151 142 140 139 130 129 130 122 100 110 123 131 115 116 105 87 87 85 107 102 70 78 81 73 59 70 75 50 109 119 109 112 107 96 114 130 121 114 306 304 302 308 308
145 139 141 137 133 139 136 123 101 102 118 126 111 113 117 106 97 83 101 102 81 86 64 92 98 72 59 18 315 310 72 81 89 102 90 104 146 176 252 288 292 301 305
150 150 150 137 140 147 141 129 112 101 99 113 106 110 138 143 125 107 115 83 93 74 50 56 105 153 171 294 285 292 244 150 216 143 136 116 77 196 212 265 272 283 295
150 154 159 143 144 147 143 140 140 140 113 83 105 122 140 144 134 127 126 121 117 128 97 116 193 224 188 233 317 327 294 257 249 228 226 182 204 253 252 246 252 264 274
142 146 161 158 159 157 166 171 183 199 187 154 98 114 132 139 139 130 144 157 142 160 189 202 238 198 237 79 41 341 306 265 249 251 239 218 211 235 252 243 248 262 259
160 168 182 178 173 172 180 186 194 193 184 167 128 122 134 140 145 171 163 171 171 178 188 212 221 183 273 68 114 269 294 305 288 255 240 253 256 262 258 282 288 297 288
168 182 197 193 183 174 164 155 157 153 158 159 178 164 138 156 158 156 172 174 177 180 196 212 216 182 188 257 186 168 201 249 304 301 274 255 254 264 268 269 278 288 303
187 185 190 189 185 168 160 166 169 187 200 204 188 173 159 156 147 138 152 161 178 183 193 215 224 200 167 200 303 319 279 229 236 290 295 276 272 272 269 295 293 287 288
165 172 181 176 179 171 162 175 182 195 201 166 150 148 147 136 133 135 141 139 168 198 191 187 201 195 189 187 196 252 304 320 273 232 271 288 296 280 281 288 277 296 315
110 137 151 156 163 158 158 178 184 183 184 175 172 166 162 156 141 138 144 133 144 155 183 185 190 188 203 192 196 203 213 231 258 250 260 277 284 283 282 283 274 303 311
Height
1512 1512 1513 1514 1515 1516 1517 1518 1519 1519 1520 1521 1522 1523 1524 1525 1525 1526 1527 1528 1528 1529 1530 1530 1531 1531 1532 1532 1533 1533 1534 1534 1535 1535 1535 1536 1536 1537 1537 1537 1538 1538 1538
1511 1512 1512 1513 1515 1516 1517 1518 1519 1520 1521 1522 1523 1524 1524 1525 1526 1527 1528 1528 1529 1530 1530 1531 1531 1532 1532 1533 1533 1534 1534 1535 1536 1536 1537 1537 1537 1538 1538 1539 1539 1539 1539
1511 1512 1512 1513 1514 1515 1517 1518 1519 1520 1521 1522 1523 1524 1525 1526 1527 1527 1528 1529 1529 1530 1531 1531 1532 1532 1533 1533 1534 1535 1535 1536 1537 1537 1538 1538 1538 1539 1539 1540 1540 1540 1540
1511 1512 1512 1513 1515 1515 1517 1518 1519 1520 1521 1522 1523 1524 1525 1526 1527 1528 1528 1529 1530 1530 1531 1531 1532 1532 1533 1534 1534 1535 1536 1537 1538 1538 1538 1539 1539 1539 1540 1540 1540 1541 1541
1512 1512 1513 1514 1515 1515 1517 1518 1519 1520 1521 1522 1523 1524 1525 1526 1527 1528 1528 1529 1530 1530 1531 1531 1532 1532 1533 1534 1534 1535 1536 1537 1538 1538 1538 1539 1539 1540 1540 1540 1541 1541 1541
1512 1512 1513 1514 1514 1515 1517 1518 1518 1520 1521 1522 1523 1524 1525 1526 1527 1527 1528 1529 1530 1530 1530 1531 1531 1532 1533 1534 1535 1535 1536 1537 1538 1538 1538 1539 1539 1540 1540 1540 1541 1541 1541
1511 1512 1512 1513 1514 1515 1516 1517 1518 1519 1520 1521 1522 1523 1524 1525 1526 1527 1528 1528 1529 1530 1530 1530 1531 1532 1533 1534 1534 1535 1536 1537 1537 1538 1538 1539 1539 1539 1540 1540 1540 1541 1541
1511 1512 1512 1513 1514 1515 1516 1517 1518 1519 1520 1521 1522 1523 1523 1524 1525 1526 1527 1528 1528 1529 1530 1530 1530 1531 1532 1533 1534 1535 1536 1536 1537 1537 1537 1538 1539 1539 1539 1540 1540 1540 1541
1511 1511 1512 1513 1513 1514 1515 1516 1517 1518 1519 1520 1521 1522 1523 1523 1524 1525 1526 1527 1528 1529 1529 1530 1530 1531 1532 1532 1533 1534 1535 1536 1536 1537 1537 1537 1538 1539 1539 1539 1540 1540 1540
1510 1510 1511 1511 1512 1513 1514 1515 1516 1517 1518 1519 1520 1521 1522 1522 1523 1524 1525 1526 1527 1528 1528 1529 1529 1530 1531 1532 1533 1534 1534 1535 1535 1536 1536 1537 1537 1538 1538 1539 1539 1539 1539
1509 1510 1510 1510 1511 1512 1513 1514 1515 1516 1517 1518 1519 1520 1521 1521 1522 1523 1524 1525 1526 1526 1527 1528 1529 1530 1530 1531 1532 1533 1533 1534 1534 1535 1536 1536 1536 1537 1537 1538 1538 1538 1538
1508 1508 1509 1509 1510 1510 1511 1512 1513 1514 1515 1516 1517 1518 1519 1520 1521 1522 1523 1524 1524 1525 1526 1527 1528 1529 1529 1530 1531 1531 1532 1533 1533 1534 1535 1535 1536 1536 1536 1537 1537 1537 1537
1506 1507 1507 1508 1508 1509 1510 1510 1512 1513 1514 1514 1516 1517 1517 1518 1519 1520 1521 1522 1523 1524 1525 1525 1526 1527 1528 1529 1530 1530 1531 1531 1532 1532 1533 1534 1534 1534 1535 1535 1536 1535 1535
1504 1505 1506 1506 1507 1507 1508 1509 1510 1511 1512 1513 1514 1515 1516 1517 1517 1518 1519 1520 1521 1522 1523 1524 1525 1526 1527 1527 1528 1528 1529 1530 1530 1531 1531 1532 1532 1533 1533 1533 1534 1534 1533
1502 1503 1504 1504 1505 1506 1506 1507 1508 1509 1509 1511 1511 1513 1514 1515 1515 1516 1517 1518 1519 1520 1521 1522 1523 1524 1524 1525 1526 1527 1527 1528 1528 1529 1529 1530 1530 1531 1531 1531 1531 1531 1531
1500 1501 1502 1502 1503 1504 1505 1505 1505 1506 1507 1508 1509 1510 1512 1512 1513 1514 1515 1516 1517 1518 1519 1520 1521 1521 1522 1523 1524 1524 1525 1526 1526 1527 1527 1527 1528 1528 1529 1529 1529 1529 1529
1498 1499 1499 1500 1500 1501 1502 1503 1504 1504 1505 1506 1507 1508 1509 1510 1511 1512 1513 1514 1515 1516 1517 1518 1518 1519 1520 1521 1521 1522 1523 1523 1524 1524 1524 1525 1525 1526 1526 1527 1527 1527 1526
1496 1496 1497 1498 1498 1499 1500 1500 1501 1502 1503 1504 1504 1505 1506 1508 1509 1510 1511 1511 1512 1513 1514 1515 1516 1517 1517 1518 1519 1519 1520 1521 1521 1521 1522 1522 1522 1523 1523 1524 1524 1524 1523
1493 1494 1495 1495 1496 1496 1497 1498 1499 1500 1501 1501 1501 1502 1504 1505 1506 1508 1509 1509 1510 1511 1512 1513 1514 1514 1515 1515 1516 1517 1517 1518 1518 1518 1519 1519 1519 1520 1520 1520 1520 1520 1520
1490 1491 1492 1493 1493 1494 1494 1495 1496 1497 1498 1498 1499 1500 1501 1503 1504 1505 1506 1507 1508 1509 1510 1510 1511 1512 1512 1513 1513 1514 1514 1515 1515 1515 1516 1516 1517 1517 1517 1517 1517 1517 1517
1487 1488 1489 1489 1490 1491 1491 1492 1493 1494 1495 1496 1496 1498 1499 1500 1501 1502 1503 1504 1505 1506 1507 1507 1508 1509 1510 1510 1511 1511 1511 1512 1512 1512 1513 1513 1513 1514 1514 1514 1514 1514 1513
1484 1484 1485 1486 1487 1488 1488 1489 1490 1491 1492 1493 1494 1495 1496 1497 1498 1499 1500 1501 1502 1503 1504 1505 1506 1506 1507 1508 1509 1509 1509 1510 1509 1509 1509 1510 1510 1510 1510 1511 1510 1510 1510
1481 1481 1482 1483 1484 1485 1486 1487 1487 1488 1489 1490 1491 1492 1493 1494 1495 1496 1497 1498 1499 1500 1500 1501 1502 1503 1504 1505 1506 1507 1507 1506 1506 1506 1506 1507 1507 1507 1507 1507 1507 1506 1506
1478 1479 1479 1480 1481 1482 1483 1483 1484 1485 1486 1487 1488 1488 1490 1491 1491 1492 1494 1495 1496 1496 1497 1498 1499 1500 1501 1501 1503 1504 1505 1504 1505 1503 1503 1504 1504 1504 1504 1504 1503 1503 1503
1475 1476 1476 1477 1478 1479 1480 1481 1481 1482 1483 1484 1485 1486 1487 1488 1489 1490 1490 1491 1492 1493 1494 1495 1495 1496 1497 1498 1499 1500 1501 1501 1502 1501 1500 1500 1501 1501 1500 1500 1500 1500 1499
1472 1472 1473 1474 1475 1476 1477 1477 1478 1479 1480 1481 1481 1482 1483 1485 1485 1486 1487 1488 1489 1489 1490 1491 1492 1493 1494 1495 1496 1497 1497 1498 1498 1498 1498 1497 1497 1497 1496 1496 1496 1496 1495